www.pogodaiklimat.ru

Погода и климат >> Архив погоды >> Россия >> Ханты-Мансийский АО >> Нефтеюганск


ПОГОДА в Нефтеюганске

АРХИВ ПОГОДЫ в Нефтеюганске

Время (UTC), дата Ветер
(напр.,м/с)
 
Видим.   Явления Облачность Т
(С)
Тd
(С)
f
(%)
Тe
(С)
Тes
(С)
Комфортность P
(гПа)
Po
(гПа)
Тmin
(С)
Tmax
(С)
R
(мм)
R24
(мм)
S
(см)
00 11.11 З 2 20 км 9/0
[Ac und]
-18.4 -20.6 83 -24 -24 холодно 1027.5 1022.0
03 11.11 З 2
{5}
50 км 10/0
[As op]
-19.3 -21.4 83 -25 -25 очень
холодно
1028.2 1022.7 -20.2 10
06 11.11 Ю 2 50 км 6/3 300 м
[St Ci fib]
-17.9 -20.0 84 -23 -23 холодно 1028.6 1023.1
09 11.11 Ю 2 50 км 9/0
[Ac cast Ci fib]
-17.4 -19.5 84 -23 -23 холодно 1028.5 1023.0
12 11.11 ЮВ 3 20 км в посл. час ливневой снег 9 баллов -15.8 -17.7 85 -23 -23 холодно 1028.1 1022.7
15 11.11 Ю 3
{5}
10 км слабый снег 10/5 300 м
[Frnb As op]
-13.0 -14.9 86 -19 -19 по сезону 1026.9 1021.6 -13.0 0.7
18 11.11 Ю 3 10 км слабый снег 10/6 300 м
[Frnb As op]
-11.6 -13.3 87 -18 -18 по сезону 1025.8 1020.4
21 11.11 ЮВ 3 10 км слабый снег 10/6 300 м
[Frnb As op]
-9.7 -11.2 89 -16 -16 по сезону 1024.4 1019.1
00 12.11 ЮВ 2 4000 м слабый снег 10 баллов -7.8 -9.0 91 -12 -12 по сезону 1024.0 1018.7
03 12.11 Ю 3
{5}
10 км слабый снег 10/5 300 м
[Frnb As op]
-6.3 -7.5 91 -12 -12 по сезону 1022.7 1017.4 -13.0 0.7 12
06 12.11 ЮВ 1 4000 м слабый снег 10/6 300 м
[Frnb As op]
-4.6 -5.7 92 -7 -7 тепло 1022.6 1017.4
09 12.11 В 1 10 км слабый ливневой снег 10/8 300 м
[Cb cap As op]
-3.3 -4.9 89 -6 -6 тепло 1023.0 1017.8
12 12.11 В 2 20 км 10 баллов -4.8 -5.8 93 -9 -9 тепло 1025.2 1020.0
15 12.11 В 2
{4}
20 км 10 баллов -5.9 -7.0 92 -10 -10 по сезону 1025.2 1020.0 -3.1 0.5
18 12.11 СВ 2 10 км слабый снег 10/6 300 м
[Frnb As op]
-7.5 -8.7 91 -12 -12 по сезону 1024.8 1019.5
21 12.11 В 2 10 км слабый снег 10/8 300 м
[Frnb As op]
-7.8 -8.8 93 -12 -12 по сезону 1025.3 1020.0
00 13.11 В 3 20 км 10 баллов -8.9 -10.1 91 -15 -15 по сезону 1026.6 1021.3
03 13.11 В 3
{5}
50 км 10/10 300 м
[St]
-9.1 -10.2 92 -15 -15 по сезону 1026.6 1021.4 -9.2 0.4 12
06 13.11 штиль 0 4000 м слабый снег 10/0
[As op]
-8.5 -9.6 92 -9 -9 тепло 1026.8 1021.4
09 13.11 В 2 50 км {снег} 10/0
[As op]
-9.6 -11.0 90 -14 -14 по сезону 1027.5 1022.2
12 13.11 В 3 20 км 10 баллов -11.5 -13.2 87 -17 -17 по сезону 1029.4 1024.0
15 13.11 В 2
{5}
20 км 5 баллов -14.6 -16.1 88 -20 -20 прохладно 1029.4 1024.0 -8.5 0.2
18 13.11 В 3 20 км 10/0
[Ac und]
-14.3 -15.9 88 -21 -21 прохладно 1028.9 1023.5
21 13.11 В 1 20 км 5/0
[Ci fib]
-17.3 -19.1 86 -20 -20 прохладно 1029.5 1024.0
00 14.11 В 2 20 км 8/0
[Ac trans Ci fib]
-17.6 -19.5 85 -23 -23 прохладно 1029.9 1024.4
03 14.11 В 2
{4}
50 км 8/0
[Ac trans]
-18.2 -20.3 84 -24 -24 холодно 1030.7 1025.1 -18.3 12
06 14.11 В 3 50 км 6/0
[Ac trans Ci fib]
-18.0 -20.7 79 -25 -25 очень
холодно
1031.6 1026.1 -18.7
09 14.11 В 3 50 км 4/0
[Ci fib]
-17.2 -19.9 79 -24 -24 холодно 1032.0 1026.5
12 14.11 В 3 20 км 4/0
[Ci fib]
-20.1 -22.4 82 -28 -28 очень
холодно
1032.6 1027.1
15 14.11 В 2
{4}
20 км ясно -21.8 -24.4 79 -28 -28 очень
холодно
1034.9 1029.3 -17.1
18 14.11 В 2 20 км ясно -22.7 -25.4 79 -29 -29 очень
холодно
1034.0 1028.4
21 14.11 В 2 20 км ясно -23.5 -26.2 78 -30 -30 очень
холодно
1033.8 1028.2
00 15.11 ЮВ 2 н/о н/о -22.6 -25.1 80 -29 -29 очень
холодно
1033.3 1027.6
03 15.11 ЮВ 3
{5}
50 км 9/0
[Ac trans]
-20.0 -22.3 82 -28 -28 очень
холодно
1032.7 1027.2 -23.8 12
06 15.11 Ю 4 50 км 8/0
[Ac trans]
-14.7 -17.0 83 -22 -22 прохладно 1031.3 1025.9
09 15.11 ЮВ 5 50 км 9/0
[Ac trans]
-13.1 -15.3 83 -21 -21 прохладно 1028.9 1023.5
12 15.11 ЮВ 5
{11}
50 км 9 баллов -12.3 -14.3 85 -20 -20 прохладно 1028.1 1022.7
15 15.11 Ю 7-11
{11}
10 км слабый снег 10/5 300 м
[Frnb As op]
-11.1 -13.1 85 -20 -20 прохладно 1024.3 1019.0 -11.1 0.0
18 15.11 ЮВ 7
{12}
4000 м слабый снег 10 баллов -10.4 -12.1 87 -20 -20 прохладно 1022.6 1017.3
21 15.11 Ю 5
{10}
4000 м слабый снег 10 баллов -10.0 -11.7 87 -18 -18 по сезону 1021.3 1016.0
00 16.11 Ю 4 4000 м слабый снег 10 баллов -8.5 -10.0 89 -15 -15 по сезону 1018.5 1013.3
03 16.11 Ю 4
{12}
4000 м слабый снег {метель} 10/10 300 м
[Frnb Ns]
-6.6 -7.8 91 -13 -13 по сезону 1016.9 1011.7 -11.1 4 14
06 16.11 Ю 4 50 км в посл. час снег {метель} 10/6 300 м
[Frnb As op]
-4.9 -6.2 91 -11 -11 по сезону 1016.9 1011.7
09 16.11 Ю 2 50 км 10/10 300 м
[St]
-3.2 -4.8 89 -7 -7 тепло 1017.1 1012.0
12 16.11 Ю 2 20 км 10/10 200 м
[St]
-2.7 -3.8 92 -7 -7 тепло 1017.6 1012.5
15 16.11 ЮВ 1
{8}
20 км 10 баллов -2.7 -3.4 95 -5 -5 тепло 1018.4 1013.3 -2.5 0.0
18 16.11 В 2 2000 м дымка 10/10 100 м
[St]
-3.1 -3.7 96 -7 -7 тепло 1015.5 1010.3
21 16.11 В 3 2000 м дымка 10/10 100 м
[St]
-4.0 -4.6 96 -10 -10 тепло 1013.6 1008.5
00 17.11 СВ 2 4000 м слабый снег 10 баллов -4.5 -5.3 94 -9 -9 тепло 1013.1 1008.0
03 17.11 С 2
{4}
4000 м слабый снег 10/6 300 м
[Frnb As op]
-5.5 -6.3 94 -10 -10 тепло 1011.6 1006.4 -5.5 3 16
06 17.11 СЗ 2 4000 м слабый снег 10 баллов -5.8 -6.7 93 -10 -10 тепло 1013.2 1008.0 -6.2
09 17.11 СЗ 1 50 км {снег} 10/0
[As op]
-4.9 -6.2 91 -7 -7 тепло 1013.2 1008.0
12 17.11 СЗ 2 20 км 10 баллов -5.0 -6.2 91 -9 -9 тепло 1015.9 1010.7
15 17.11 Ю 1
{3}
20 км 10 баллов -5.7 -6.6 93 -8 -8 тепло 1015.9 1010.7 -4.9 0.3
18 17.11 В 2 20 км 10/10 200 м
[St]
-5.8 -6.7 93 -10 -10 тепло 1014.9 1009.7

 

Местоположение метеостанции Нефтеюганск (Ханты-Мансийский АО, Россия): широта 61.07 долгота 72.62 высота над уровнем моря 40 м.

В архиве по умолчанию представлена погода в Нефтеюганске за последнюю неделю. Архивные данные за месяц целиком и за предыдущие месяцы, начиная с января 2011 года, Вы можете получить, выбрав интересующий диапазон дат из раскрывающегося списка и нажав кнопку "Ввод!".

Внимание! Время в таблицах - всемирное. Для получения местного времени необходимо прибавить поправку, которая в Нефтеюганске равна 5 ч.

Смотрите также архив погоды в соседних городах и на ближайших метеорологических станциях:

Погода в Сургуте (Ханты-Мансийский АО, Россия) (52 км)
Погода в Сытомино (Ханты-Мансийский АО, Россия) (75 км)
Погода в Угуте (Ханты-Мансийский АО, Россия) (99 км)
Погода в Салыме (Ханты-Мансийский АО, Россия) (127 км)
Погода в Когалыме (Ханты-Мансийский АО, Россия) (164 км)
Погода в Таурово (Ханты-Мансийский АО, Россия) (170 км)
Погода в Ханты-Мансийске (Ханты-Мансийский АО, Россия) (188 км)
Погода в Нижнесортымском (Ханты-Мансийский АО, Россия) (193 км)
Погода в Алтае (Ханты-Мансийский АО, Россия) (215 км)
Погода в Нижневартовске (Ханты-Мансийский АО, Россия) (215 км)

Пояснения к столбцам:

Ветер - указаны скорость ветра в м/с - средняя за 10 мин, порывы в срок и между сроками (в фигурных скобках) и направление, откуда дует ветер: С - северный, СВ - северо-восточный, В - восточный, ЮВ - юго-восточный, Ю - южный, ЮЗ - юго-западный, З - западный, СЗ - северо-западный.
Видимость - горизонтальная дальность видимости в метрах или километрах. При видимости от 1 до 10 км при отсутствии осадков обычно наблюдается дымка, при ухудшении видимости до 1 км и менее - туман. В сухую погоду видимость может ухудшаться дымом, пылью или мглою.
Явления - указаны атмосферные явления, наблюдавшиеся в срок или в последний час перед сроком; фигурными скобками обозначены явления, наблюдавшиеся между сроками (за 1-3 часа до срока); квадратными скобками обозначены град или гололедные отложения с указанием их диаметра в мм.
Облачность - указаны через наклонную черту общая и нижняя облачность в баллах и высота нижней границы облаков в метрах; квадратными скобками обозначены формы облаков: Ci - перистые, Cs - перисто-слоистые, Cc - перисто-кучевые, Ac - высококучевые, As - высокослоистые, Sc - слоисто-кучевые, Ns - слоисто-дождевые, Cu - кучевые, Cb - кучево-дождевые. Подробнее классификацию облаков см. в Атласе облаков (PDF).
T - Температура воздуха - температура, измеренная на высоте 2 м над землей.
Td - Температура точки росы - температура, при понижении до которой содержащийся в воздухе водяной пар достигнет насыщения.
f - Относительная влажность воздуха - влажноcть воздуха, измеренная на высоте 2 м над землей.
Te - Эффективная температура - температура, которую ощущает одетый по сезону человек в тени. Характеристика душности погоды. При расчете учитывается влияние влажности воздуха и скорости ветра на теплоощущения человека.
Tes - Эффективная температура на солнце - температура, которую ощущает человек, с поправкой на солнечный нагрев. Характеристика знойности погоды. Зависит от высоты солнца над горизонтом, облачности и скорости ветра. Ночью, в пасмурную погоду, а также при ветре 12 м/с и более поправка равна нулю.
P - Атмосферное давление - приведенное к уровню моря атмосферное давление.
Po - Атмосферное давление - измеренное на уровне метеостанции атмосферное давление.
Tmin - Минимальная температура - минимум температуры воздуха на высоте 2 м над землей.
Tmax - Максимальная температура - максимум температуры воздуха на высоте 2 м над землей.
R - Количество осадков - Количество выпавших осадков за период времени, мм. При наведении курсора мыши на число - период времени, за который выпало указанное количество осадков.
R24 - Количество осадков - Количество выпавших осадков за 24 часа, мм.
S - Снежный покров - Высота снежного покрова, см. При наведении курсора мыши на число - состояние снежного покрова и степень покрытия местности в баллах.